map of BZV home
Great Circle Mapper logo
BZV - Airport
Location
City:  Brazzaville, Congo (Republic of)
Name:Maya Maya
ICAO:FCBB
IATA:BZV

Details
Type:Airport (Aerodrome, Airfield)
Use:Public/Civil
Latitude:415'02"S (-4.250499)
Longitude:1515'05"E (15.251500)
Elevation:1048 ft (319 m)
Variation:1.59W (WMM2015 magnetic declination)
0.15 annual change
Runways:2
Longest:10827 × 148 ft (3300 × 45 m)

Time
Time Zone:UTC+1
Local Time:

Weather
METAR:FCBB 051700Z 30005KT 8000 FEW023 FEW030CB 29/24 Q1011 TEMPO TS
TAF:FCBB 051700Z 0518/0624 23004KT 8000 SCT013 FEW030CB
TEMPO 0617/0622 4500 TSRA

Related Locations
Nearby:
Farthest:PLPA: 12228 mi / 19679 km
Palmyra Island Atoll [Palmyra Airport (Cooper)], UM

Find:

   beyond  
but within

Other Information
Maps:
NOTAMs:
Links:
Sources:

  
flag of Congo (Republic of)   

Sectional Chart

Flight Planning
at skyvector.com

Satellite Image

Google Maps Satellite view

 

Copyright © 2004-2016 Karl L. Swartz. All rights reserved.
The Great Circle Mapper name and logo are trademarks of the Great Circle Mapper.
All other trademarks mentioned herein belong to their respective owners.
Please see credits for attibutions and further copyright information.

  Follow gcmap on Facebook Follow gcmap on Twitter Follow gcmap on Google+ GCmap on LinkedIn

hCard Microformat

Geo Microformat